Weather History for Marathon, FL

Change the Weather History Date:

Monday, November 14, 2011

  Actual Average Record
Temperature  
Mean Temperature 79 °F 76 °F  
Max Temperature 84 °F 81 °F 87 °F (1997)
Min Temperature 73 °F 71 °F 66 °F (2002)
Degree Days  
Heating Degree Days 0 0  
Month to date heating degree days 0 0  
Since 1 July heating degree days 0 0  
Cooling Degree Days 14 11  
Month to date cooling degree days 146 165  
Year to date cooling degree days 4925 4604  
Growing Degree Days 28 (Base 50)    
Moisture  
Dew Point 73 °F    
Average Humidity 84    
Maximum Humidity 94    
Minimum Humidity 74    
Precipitation  
Precipitation 0.00 in 0.10 in 0.15 in (1998)
Month to date precipitation 0.08 1.57  
Year to date precipitation 35.59 42.90  
Snow  
Snow 0.00 in - - ()
Month to date snowfall 0.0  
Since 1 July snowfall 0.0  
Since 1 September snowfall 0.0  
Snow Depth 0.00 in    
Sea Level Pressure  
Sea Level Pressure 30.06 in    
Wind  
Wind Speed 9 mph (ENE)    
Max Wind Speed 18 mph    
Max Gust Speed 24 mph    
Visibility 10 miles    
Events      
T = Trace of Precipitation, MM = Missing Value Source: NWS Daily Summary

Daily Weather History Graph

Daily Weather History Graph

Search for Another Location

Airport:

Trip Planner

Search our weather history database for the weather conditions in past years. The results will help you decide how hot, cold, wet, or windy it might be!

Date:

Astronomy

Nov. 14, 2011 Rise Set
Actual Time 6:39 AM EST 5:37 PM EST
Civil Twilight 6:15 AM EST 6:01 PM EST
Nautical Twilight 5:47 AM EST 6:28 PM EST
Astronomical Twilight 5:20 AM EST 6:56 PM EST
Moon 8:49 PM EST (11/14) 9:48 AM EST (11/14)
Length of Visible Light 11h 45m
Length of Day
10h 57m
Waning Gibbous, 87% of the Moon is Illuminated
Nov 14
Waning Gibbous
Nov 18
Last Quarter
Nov 25
New
Dec 2
First Quarter
Dec 10
Full

Hourly Weather History & Observations

Time (EST) Temp. Heat Index Dew Point Humidity Pressure Visibility Wind Dir Wind Speed Gust Speed Precip Events Conditions
12:07 AM 73.4 °F - 71.6 °F 94% 30.10 in 10.0 mi NE 9.2 mph - N/A   Overcast
12:40 AM 73.4 °F - 71.6 °F 94% 30.09 in 10.0 mi NNE 9.2 mph - N/A   Overcast
12:53 AM 73.9 °F - 71.1 °F 91% 30.09 in 10.0 mi NNE 9.2 mph - N/A   Mostly Cloudy
1:20 AM 73.4 °F - 71.6 °F 94% 30.09 in 10.0 mi NNE 9.2 mph - N/A   Overcast
1:41 AM 73.4 °F - 71.6 °F 94% 30.09 in 10.0 mi NNE 11.5 mph - N/A   Mostly Cloudy
1:53 AM 73.9 °F - 71.1 °F 91% 30.08 in 10.0 mi NNE 9.2 mph - N/A   Mostly Cloudy
2:53 AM 73.9 °F - 71.1 °F 91% 30.06 in 10.0 mi NE 8.1 mph - N/A   Mostly Cloudy
3:53 AM 73.0 °F - 71.1 °F 93% 30.05 in 10.0 mi NE 10.4 mph - N/A   Partly Cloudy
4:53 AM 73.9 °F - 72.0 °F 93% 30.05 in 10.0 mi NE 9.2 mph - N/A   Scattered Clouds
5:53 AM 73.0 °F - 72.0 °F 96% 30.07 in 10.0 mi NNE 9.2 mph - N/A   Mostly Cloudy
6:29 AM 73.4 °F - 71.6 °F 94% 30.08 in 10.0 mi NNE 9.2 mph - N/A   Mostly Cloudy
6:53 AM 73.0 °F - 71.1 °F 93% 30.08 in 10.0 mi NNE 9.2 mph - N/A   Mostly Cloudy
7:51 AM 73.4 °F - 71.6 °F 94% 30.09 in 9.0 mi NNE 10.4 mph - N/A   Overcast
7:53 AM 73.9 °F - 72.0 °F 93% 30.09 in 9.0 mi NNE 9.2 mph - N/A   Overcast
8:53 AM 75.0 °F - 73.0 °F 94% 30.10 in 9.0 mi NE 8.1 mph - N/A   Mostly Cloudy
9:04 AM 75.2 °F - 73.4 °F 94% 30.10 in 9.0 mi NE 9.2 mph - N/A   Mostly Cloudy
9:22 AM 77.0 °F - 73.4 °F 89% 30.11 in 10.0 mi NE 10.4 mph - N/A   Scattered Clouds
9:53 AM 77.0 °F - 73.0 °F 88% 30.11 in 10.0 mi NE 12.7 mph - N/A   Partly Cloudy
10:53 AM 79.0 °F - 73.0 °F 82% 30.09 in 10.0 mi NE 13.8 mph - N/A   Partly Cloudy
11:25 AM 80.6 °F 85.4 °F 73.4 °F 79% 30.09 in 10.0 mi ENE 13.8 mph 20.7 mph N/A   Mostly Cloudy
11:53 AM 82.9 °F 89.4 °F 73.9 °F 74% 30.07 in 10.0 mi East 11.5 mph 20.7 mph N/A   Scattered Clouds
12:38 PM 82.4 °F 88.2 °F 73.4 °F 74% 30.05 in 10.0 mi East 13.8 mph 21.9 mph N/A   Mostly Cloudy
12:53 PM 82.0 °F 87.9 °F 73.9 °F 76% 30.04 in 10.0 mi East 15.0 mph - N/A   Mostly Cloudy
1:07 PM 82.4 °F 89.5 °F 75.2 °F 79% 30.04 in 10.0 mi East 15.0 mph 20.7 mph N/A   Scattered Clouds
1:53 PM 82.9 °F 90.2 °F 75.0 °F 77% 30.01 in 10.0 mi East 13.8 mph - N/A   Partly Cloudy
2:41 PM 82.4 °F 89.5 °F 75.2 °F 79% 30.01 in 10.0 mi East 10.4 mph 17.3 mph N/A   Mostly Cloudy
2:53 PM 82.0 °F 88.6 °F 75.0 °F 79% 30.01 in 10.0 mi East 11.5 mph - N/A   Mostly Cloudy
3:25 PM 80.6 °F 86.2 °F 75.2 °F 84% 30.00 in 10.0 mi East 10.4 mph - N/A   Mostly Cloudy
3:53 PM 81.0 °F 86.7 °F 75.0 °F 82% 30.00 in 10.0 mi East 10.4 mph - N/A   Scattered Clouds
4:53 PM 80.1 °F 85.1 °F 75.0 °F 85% 30.00 in 10.0 mi East 8.1 mph - N/A   Partly Cloudy
5:53 PM 79.0 °F - 75.0 °F 88% 30.01 in 10.0 mi East 6.9 mph - N/A   Partly Cloudy
6:53 PM 78.1 °F - 75.0 °F 90% 30.02 in 10.0 mi East 4.6 mph - N/A   Clear
7:53 PM 78.1 °F - 75.0 °F 90% 30.03 in 10.0 mi ENE 6.9 mph - N/A   Clear
8:53 PM 78.1 °F - 75.0 °F 90% 30.04 in 10.0 mi East 5.8 mph - N/A   Clear
9:53 PM 78.1 °F - 75.0 °F 90% 30.04 in 10.0 mi East 4.6 mph - N/A   Clear
10:53 PM 78.1 °F - 75.9 °F 93% 30.04 in 10.0 mi East 4.6 mph - N/A   Mostly Cloudy
11:01 PM 78.8 °F - 75.2 °F 89% 30.04 in 10.0 mi East 4.6 mph - N/A   Scattered Clouds
11:53 PM 78.1 °F - 75.0 °F 90% 30.03 in 10.0 mi East 4.6 mph - N/A   Clear